GW4913 Weather Reports


time (UTC)temp
C
wind
direction
speed
KPH
gust
KPH
rain 1hr
cm
rain 24hr
cm
rain mn
cm
humidity
%
barometer
mb
20260507213519 24 90 3.2 11.3 0.00 0.00 0.00 80 1019.0
20260507212519 24 90 3.2 14.5 0.00 0.00 0.00 80 1018.9
20260507211519 24 90 3.2 12.9 0.00 0.00 0.00 80 1019.0
20260507210519 25 113 3.2 11.3 0.00 0.00 0.00 80 1019.0
20260507205519 25 90 3.2 9.7 0.00 0.00 0.00 79 1019.1
20260507204540 25 90 3.2 9.7 0.00 0.00 0.00 79 1019.2
20260507203519 25 90 3.2 8.0 0.00 0.00 0.00 79 1019.2
20260507202519 25 90 1.6 8.0 0.00 0.00 0.00 79 1019.5
20260507201539 25 90 1.6 8.0 0.00 0.00 0.00 78 1019.5
20260507200519 25 90 3.2 9.7 0.00 0.00 0.00 77 1019.5
20260507195519 25 0.0 4.8 0.00 0.00 0.00 77 1019.4
20260507194519 25 135 1.6 8.0 0.00 0.00 0.00 76 1019.5
20260507193539 25 113 1.6 11.3 0.00 0.00 0.00 76 1019.6
20260507192519 26 135 3.2 12.9 0.00 0.00 0.00 75 1019.5
20260507191519 26 90 3.2 14.5 0.00 0.00 0.00 74 1019.7
20260507190519 26 135 1.6 9.7 0.00 0.00 0.00 72 1019.8
20260507185519 26 113 3.2 8.0 0.00 0.00 0.00 71 1020.0
20260507184539 26 180 1.6 6.4 0.00 0.00 0.00 70 1020.2
20260507183539 26 135 4.8 11.3 0.00 0.00 0.00 69 1020.4
20260507182559 26 135 1.6 9.7 0.00 0.00 0.00 69 1020.4
20260507181519 27 0.0 4.8 0.00 0.00 0.00 68 1020.2
20260507180539 27 0.0 3.2 0.00 0.00 0.00 68 1020.4
20260507175519 27 113 1.6 9.7 0.00 0.00 0.00 67 1020.2
20260507174519 27 90 1.6 6.4 0.00 0.00 0.00 66 1020.1
20260507173519 27 90 3.2 16.1 0.00 0.00 0.00 65 1019.6
20260507172519 27 135 1.6 11.3 0.00 0.00 0.00 65 1019.5
20260507171519 27 90 1.6 9.7 0.00 0.00 0.00 65 1019.7
20260507170519 27 0.0 1.6 0.00 0.00 0.00 65 1019.6
20260507165519 27 135 3.2 9.7 0.00 0.00 0.00 65 1019.8
20260507164519 27 113 1.6 6.4 0.00 0.00 0.00 65 1020.0
20260507163559 28 90 3.2 11.3 0.00 0.00 0.00 64 1019.8
20260507162519 28 90 1.6 14.5 0.00 0.00 0.00 64 1020.0
20260507161528 28 90 1.6 8.0 0.00 0.00 0.00 63 1019.9
20260507160539 28 0.0 1.6 0.00 0.00 0.00 62 1019.7
20260507155519 28 0.0 4.8 0.00 0.00 0.00 62 1019.5
20260507154519 28 90 1.6 9.7 0.00 0.00 0.00 61 1019.5
20260507153519 28 90 1.6 11.3 0.00 0.00 0.00 60 1019.3
20260507152519 28 0.0 1.6 0.00 0.00 0.00 59 1018.8
20260507151519 28 113 3.2 12.9 0.00 0.00 0.00 58 1018.4
20260507150519 28 45 1.6 8.0 0.00 0.00 0.00 57 1018.2
20260507145519 29 90 3.2 9.7 0.00 0.00 0.00 55 1018.0
20260507144519 29 113 3.2 9.7 0.00 0.00 0.00 54 1017.7
20260507143539 29 113 1.6 4.8 0.00 0.00 0.00 53 1017.5
20260507142519 29 45 1.6 6.4 0.00 0.00 0.00 52 1017.2
20260507141519 29 0.0 4.8 0.00 0.00 0.00 51 1017.0
20260507140519 29 113 1.6 8.0 0.00 0.00 0.00 51 1016.8
20260507135519 29 0.0 1.6 0.00 0.00 0.00 51 1016.5
20260507134519 30 135 1.6 8.0 0.00 0.00 0.00 51 1016.4
20260507133519 30 90 1.6 6.4 0.00 0.00 0.00 51 1016.4
20260507132519 30 68 3.2 11.3 0.00 0.00 0.00 52 1016.2
20260507131539 30 0.0 1.6 0.00 0.00 0.00 52 1016.0
20260507130539 30 113 1.6 4.8 0.00 0.00 0.00 51 1016.1
20260507125519 30 0.0 4.8 0.00 0.00 0.00 50 1015.8
20260507124519 30 113 1.6 6.4 0.00 0.00 0.00 49 1015.9
20260507123519 31 0.0 4.8 0.00 0.00 0.00 49 1016.1
20260507122539 31 0.0 4.8 0.00 0.00 0.00 49 1016.0
20260507121539 31 0.0 3.2 0.00 0.00 0.00 48 1015.8
20260507120539 31 0.0 4.8 0.00 0.00 0.00 48 1015.9
20260507115519 32 0.0 1.6 0.00 0.00 0.00 48 1016.1
20260507114552 32 45 1.6 8.0 0.00 0.00 0.00 47 1016.0
20260507113518 32 45 1.6 8.0 0.00 0.00 0.00 47 1016.2
20260507113018 32 180 1.6 6.4 0.00 0.00 0.00 46 1016.3
20260507112030 32 0.0 3.2 0.00 0.00 0.00 46 1016.2
20260507111519 32 0.0 1.6 0.00 0.00 0.00 46 1016.1
20260507110524 32 0.0 4.8 0.00 0.00 0.00 46 1016.2
20260507105518 32 0.0 3.2 0.00 0.00 0.00 45 1016.1
20260507104522 32 45 3.2 12.9 0.00 0.00 0.00 45 1016.2
20260507103518 32 0.0 6.4 0.00 0.00 0.00 45 1016.2
20260507102518 32 45 1.6 8.0 0.00 0.00 0.00 46 1016.4
20260507102031 32 90 3.2 12.9 0.00 0.00 0.00 46 1016.5
20260507101601 32 0.0 8.0 0.00 0.00 0.00 48 1016.6
20260507100518 32 90 1.6 8.0 0.00 0.00 0.00 48 1016.7
20260507095518 32 90 1.6 8.0 0.00 0.00 0.00 48 1017.0
20260507094518 32 0.0 4.8 0.00 0.00 0.00 48 1016.9
20260507093518 32 315 1.6 6.4 0.00 0.00 0.00 47 1017.1
20260507092519 33 45 3.2 11.3 0.00 0.00 0.00 46 1017.2
20260507091518 32 0.0 1.6 0.00 0.00 0.00 48 1017.3
20260507090518 32 0.0 4.8 0.00 0.00 0.00 48 1017.5
20260507085518 33 0.0 3.2 0.00 0.00 0.00 47 1017.8
20260507084519 32 135 1.6 4.8 0.00 0.00 0.00 50 1017.6
20260507083518 32 135 1.6 6.4 0.00 0.00 0.00 51 1017.5
20260507082518 31 315 1.6 6.4 0.00 0.00 0.00 52 1017.7
20260507081518 32 0.0 1.6 0.00 0.00 0.00 49 1018.0
20260507080518 32 0.0 3.2 0.00 0.00 0.00 48 1018.1
20260507075518 32 158 1.6 6.4 0.00 0.00 0.00 50 1018.5
20260507074518 32 0.0 1.6 0.00 0.00 0.00 52 1018.7
20260507073518 30 23 1.6 9.7 0.00 0.00 0.00 54 1018.5
20260507072518 30 0.0 1.6 0.00 0.00 0.00 57 1018.9
20260507071518 30 293 1.6 8.0 0.00 0.00 0.00 58 1019.2
20260507070518 30 293 1.6 9.7 0.00 0.00 0.00 57 1019.3
20260507065518 30 135 1.6 8.0 0.00 0.00 0.00 57 1019.6
20260507064518 30 315 1.6 6.4 0.00 0.00 0.00 58 1019.5
20260507063518 30 338 1.6 6.4 0.00 0.00 0.00 57 1019.8
20260507062518 30 0.0 3.2 0.00 0.00 0.00 58 1020.0
20260507061518 30 135 1.6 11.3 0.00 0.00 0.00 59 1019.9
20260507060518 30 158 1.6 9.7 0.00 0.00 0.00 59 1020.0
20260507055518 30 293 1.6 9.7 0.00 0.00 0.00 58 1020.4
20260507054518 31 180 1.6 4.8 0.00 0.00 0.00 57 1020.7
20260507053538 31 0.0 1.6 0.00 0.00 0.00 58 1021.0
20260507052540 31 113 1.6 6.4 0.00 0.00 0.00 59 1020.9
20260507051518 30 180 1.6 9.7 0.00 0.00 0.00 60 1020.9
20260507050721 28 158 3.2 11.3 0.00 0.00 0.00 63 1020.8
20260507045520 30 180 1.6 6.4 0.00 0.00 0.00 62 1021.0
20260507044520 29 135 1.6 11.3 0.00 0.00 0.00 62 1021.0
20260507043540 28 135 1.6 8.0 0.00 0.00 0.00 65 1020.8
20260507042520 27 180 1.6 9.7 0.00 0.00 0.00 68 1020.7
20260507041520 28 0.0 6.4 0.00 0.00 0.00 67 1021.0
20260507040540 27 113 1.6 8.0 0.00 0.00 0.00 69 1020.8
20260507035520 27 180 1.6 6.4 0.00 0.00 0.00 70 1020.6
20260507034520 27 135 6.4 14.5 0.00 0.00 0.00 69 1020.7
20260507033520 27 0.0 11.3 0.00 0.00 0.00 71 1020.6
20260507032520 26 135 3.2 11.3 0.00 0.00 0.00 73 1020.3
20260507031520 25 135 1.6 8.0 0.00 0.00 0.00 74 1020.3
20260507030520 25 113 1.6 6.4 0.00 0.00 0.00 77 1020.0
20260507025520 25 180 3.2 11.3 0.00 0.00 0.00 77 1020.1
20260507024520 25 135 3.2 12.9 0.00 0.00 0.00 76 1020.2
20260507023519 25 135 3.2 11.3 0.00 0.00 0.00 78 1020.0
20260507022519 25 135 4.8 12.9 0.00 0.00 0.00 77 1019.8
20260507021540 25 135 1.6 9.7 0.00 0.00 0.00 78 1019.7
20260507020520 24 135 1.6 6.4 0.00 0.00 0.00 79 1019.5
20260507015519 24 135 1.6 6.4 0.00 0.00 0.00 80 1019.4
20260507014519 23 0.0 6.4 0.00 0.00 0.00 81 1019.1
20260507013519 23 203 1.6 11.3 0.00 0.00 0.00 83 1019.1
20260507012519 23 0.0 4.8 0.00 0.00 0.00 83 1019.1
20260507011539 23 0.0 3.2 0.00 0.00 0.00 85 1019.1
20260507010519 22 135 1.6 4.8 0.00 0.00 0.00 85 1019.0
20260507005539 22 135 3.2 8.0 0.00 0.00 0.00 84 1019.1
20260507004519 23 0.0 3.2 0.00 0.00 0.00 83 1019.0
20260507003519 23 0.0 1.6 0.00 0.00 0.00 83 1019.0
20260507002519 23 0.0 3.2 0.00 0.00 0.00 83 1018.8
20260507001519 23 0.0 0.0 0.00 0.00 0.00 83 1018.7
20260507000519 23 0.0 6.4 0.00 0.00 0.00 83 1018.3
20260506235519 23 0.0 3.2 0.00 0.00 0.00 83 1018.3
20260506234519 23 135 1.6 6.4 0.00 0.00 0.00 83 1018.3
20260506233519 23 203 3.2 9.7 0.00 0.00 0.00 83 1018.1
20260506232539 23 0.0 3.2 0.00 0.00 0.00 83 1018.1
20260506231519 23 135 1.6 8.0 0.00 0.00 0.00 83 1018.0
20260506230519 23 0.0 4.8 0.00 0.00 0.00 83 1018.0
20260506225519 23 135 1.6 11.3 0.00 0.00 0.00 83 1017.7
20260506224520 23 113 1.6 8.0 0.00 0.00 0.00 83 1017.5
20260506223559 23 135 1.6 12.9 0.00 0.00 0.00 83 1017.5
20260506222519 23 0.0 1.6 0.00 0.00 0.00 83 1017.2
20260506221519 23 135 3.2 12.9 0.00 0.00 0.00 83 1017.1
20260506220519 23 135 3.2 9.7 0.00 0.00 0.00 82 1017.1
20260506215519 23 135 4.8 16.1 0.00 0.00 0.00 82 1017.4
20260506214519 23 135 3.2 12.9 0.00 0.00 0.00 82 1017.1